Showing default

COSMOS 1670, 15930

Orbit data source: Space-Track

COSMOS 1670, 15930 is a payload satellite owned by VMF (CIS) in LEO that was launched on Thu, 01 Aug 1985 UTC via a TSIKLON-2 launch vehicle from the Tyuratam Missile And Space Complex (TTMTR). Payload-class satellites include a variety of spacecraft equipped with specific instruments for various scientific and technological missions. These include communications satellites like Starlink; space stations such as the ISS; scientific satellites like the Hubble; Earth observation satellites from companies like Planet Labs, Umbra, and HawkEye 360; GPS; miniature CubeSats for education and research; and military/defense satellites.

Loading next visibility...
Identifier
15930, 1985-064A
Orbit
LEO
Country
Flag of CISCIS
Related business
Manufacturer
Kometa
Mission
Spacecraft
Bus & Motor
US-A REACTOR, Unknown motor
Mass
4,300 kg wet, 1,154 kg dry
Launch date (UTC)
1985-08-01 (41 years ago)
Launch vehicle
TSIKLON-2
Launch site
Tyuratam Missile And Space Complex (TTMTR)
Object type
Payload
Rocket body
Debris
Shape & HBR
Unknown
Radar Cross Section
Large (>1 m²)

Expand to show TLE details & history
Last TLE update: 6 hours ago

TLE from 6 hours ago
0 COSMOS 1670
1 15930U 85064A   26105.94600466 -.00000058  00000-0  27351-4 0  9996
2 15930  64.9398 301.4595 0049583  62.2323 298.3751 13.83877146 45140
Epoch: 2026-04-15T22:42Z
TLE epoch observation values (Epoch: 2026-04-15T22:42:14.802Z)
Latitude
-0.00006°
Longitude
116.79719°
Altitude
934.961 km
Speed
7.393 km/s
True Right ascension
20h 05m 50s
True Declination
0° 00' 00"
Sunlit
Object was in daylight at epoch
Visualization orbit readout
Latitude
Unknown
Longitude
Unknown
Altitude
Unknown
Speed
Unknown
Apparent Right ascension
Unknown
Apparent Declination
Unknown
Sunlit
N/A
Visualization observer readout
Local Sidereal Time
11:05:36
Azimuth
Unknown
Elevation
Unknown
Doppler factor
Unknown
Orbital elements
Apogee altitude
985.113 km
Perigee altitude
912.455 km
Semi-major axis
7,326.921 km
Eccentricity
0.00496
Inclination
64.9398°
RAAN
301.4595°
Arg. of periapsis
62.2323°
True anomaly
297.87371°
Mean anomaly
298.3751°
Eccentric anomaly
298.12455°
Mean motion
3.46068 °/min
Orbital period
104.03 mins
BSTAR
0.000027351
Loading maneuver chart data...
Computing Atmospheric mass density...
Loading historical data...
Loading historical data...
Loading historical data...
Loading historical data...
Loading historical data...
Loading historical data...
Loading historical data...

Documentation

Showing up to 5 results
|